DW9923 Weather Reports


Display with metric or nautical units.
time (UTC)temp
F
wind
direction
speed
MPH
gust
MPH
rain 1hr
in
rain 24hr
in
rain mn
in
humidity
%
barometer
mb
20260906211328 77 312 0.0 0.0 0.00 0.04 0.05 62
20260906210819 77 312 0.0 4.0 0.00 0.04 0.05 64
20260906210308 77 312 0.0 4.0 0.00 0.04 0.05 63
20260906205812 77 313 0.0 2.0 0.00 0.04 0.05 65
20260906204706 76 312 0.0 0.0 0.00 0.04 0.05 66
20260906204207 75 312 0.0 0.0 0.00 0.04 0.05 70
20260906203715 74 312 0.0 2.0 0.00 0.04 0.05 72
20260906203207 74 312 0.0 0.0 0.00 0.04 0.05 71
20260906202717 73 313 0.0 3.0 0.00 0.04 0.05 74
20260906201607 71 313 0.0 2.0 0.00 0.04 0.05 77
20260906201052 71 313 0.0 0.0 0.00 0.04 0.05 78
20260906195925 70 313 0.0 1.0 0.00 0.04 0.05 79
20260906193632 69 111 0.0 2.0 0.00 0.04 0.05 83
20260906192509 69 300 0.0 0.0 0.00 0.04 0.05 87
20260906192000 69 300 0.0 0.0 0.00 0.04 0.05 87
20260906191455 69 300 0.0 0.0 0.00 0.04 0.05 86
20260906190936 69 300 0.0 0.0 0.00 0.04 0.05 86
20260906185830 69 300 0.0 0.0 0.00 0.04 0.05 85
20260906185322 68 300 0.0 0.0 0.00 0.04 0.04 84
20260906184157 69 300 0.0 0.0 0.05 0.04 0.04 83
20260906183642 69 300 0.0 0.0 0.05 0.04 0.04 82
20260906182506 70 300 0.0 0.0 0.00 0.03 0.03 81
20260906182008 70 300 0.0 0.0 0.04 0.02 0.02 80
20260906180243 70 300 0.0 1.0 0.00 0.01 0.01 77
20260906175730 70 300 0.0 0.0 0.00 0.01 0.01 76
20260906175221 71 300 0.0 0.0 0.00 0.01 0.01 75
20260906174703 71 300 0.0 3.0 0.00 0.00 0.00 73
20260906173535 70 300 0.0 0.0 0.00 0.00 0.00 70
20260906173016 70 300 1.0 3.0 0.00 0.00 0.00 70
20260906171841 70 300 0.0 3.0 0.00 0.00 0.00 70
20260906171349 70 300 0.0 2.0 0.00 0.00 0.00 70
20260906170849 70 300 0.0 3.0 0.00 0.00 0.00 70
20260906170336 70 300 0.0 3.0 0.00 0.00 0.00 69
20260906165828 70 300 0.0 3.0 0.00 0.00 0.00 70
20260906165319 70 300 0.0 2.0 0.00 0.00 0.00 70
20260906164805 70 300 1.0 3.0 0.00 0.00 0.00 69
20260906164248 70 300 0.0 3.0 0.00 0.00 0.00 70
20260906163744 70 300 1.0 4.0 0.00 0.00 0.00 69
20260906163233 70 300 1.0 4.0 0.00 0.00 0.00 69
20260906162731 70 300 1.0 4.0 0.00 0.00 0.00 68
20260906162241 69 300 1.0 4.0 0.00 0.00 0.00 66
20260906161050 68 294 0.0 4.0 0.00 0.00 0.00 63
20260906160534 67 307 0.0 2.0 0.00 0.00 0.00 65
20260906160030 67 307 0.0 0.0 0.00 0.00 0.00 67
20260906155513 66 307 0.0 0.0 0.00 0.00 0.00 68
20260906155009 66 307 0.0 0.0 0.00 0.00 0.00 67
20260906153843 65 307 0.0 0.0 0.00 0.00 0.00 70
20260906153327 64 307 0.0 0.0 0.00 0.00 0.00 70
20260906152831 64 307 0.0 0.0 0.00 0.00 0.00 71
20260906152321 64 307 0.0 0.0 0.00 0.00 0.00 72
20260906151826 63 307 0.0 0.0 0.00 0.00 0.00 73
20260906151316 63 307 0.0 0.0 0.00 0.00 0.00 73
20260906150814 63 307 0.0 0.0 0.00 0.00 0.00 74
20260906150305 62 307 0.0 0.0 0.00 0.00 0.00 75
20260906145804 62 307 0.0 0.0 0.00 0.00 0.00 75
20260906144003 62 307 0.0 0.0 0.00 0.00 0.00 76
20260906143452 61 307 0.0 0.0 0.00 0.00 0.00 76
20260906142939 61 307 0.0 0.0 0.00 0.00 0.00 75
20260906142428 61 307 0.0 0.0 0.00 0.00 0.00 75
20260906141303 61 307 0.0 0.0 0.00 0.00 0.00 75
20260906140745 61 307 0.0 0.0 0.00 0.00 0.00 75
20260906140225 61 307 0.0 0.0 0.00 0.00 0.00 75
20260906135735 61 307 0.0 0.0 0.00 0.00 0.00 75
20260906135228 61 307 0.0 0.0 0.00 0.00 0.00 75
20260906134730 61 307 0.0 0.0 0.00 0.00 0.00 74
20260906133554 61 307 0.0 0.0 0.00 0.00 0.00 74
20260906133044 61 307 0.0 0.0 0.00 0.00 0.00 74
20260906131258 61 307 0.0 0.0 0.00 0.00 0.00 74
20260906130806 61 307 0.0 0.0 0.00 0.00 0.00 74
20260906125656 61 307 0.0 0.0 0.00 0.00 0.00 74
20260906125157 61 307 0.0 0.0 0.00 0.00 0.00 74
20260906124645 61 307 0.0 0.0 0.00 0.00 0.00 74
20260906124142 61 307 0.0 0.0 0.00 0.00 0.00 74
20260906123648 61 307 0.0 0.0 0.00 0.00 0.00 74
20260906122520 61 307 0.0 0.0 0.00 0.00 0.00 74
20260906122021 61 307 0.0 0.0 0.00 0.00 0.00 74
20260906120913 61 307 0.0 0.0 0.00 0.00 0.00 74
20260906120412 61 307 0.0 0.0 0.00 0.00 0.00 74
20260906115859 60 307 0.0 0.0 0.00 0.00 0.00 74
20260906115358 60 307 0.0 0.0 0.00 0.00 0.00 74
20260906114903 60 307 0.0 0.0 0.00 0.00 0.00 74
20260906114409 60 307 0.0 0.0 0.00 0.00 0.00 74
20260906113849 60 307 0.0 0.0 0.00 0.00 0.00 74
20260906112735 60 307 0.0 0.0 0.00 0.00 0.00 74
20260906111604 60 307 0.0 0.0 0.00 0.00 0.00 74
20260906111047 60 307 0.0 0.0 0.00 0.00 0.00 74
20260906110548 60 307 0.0 0.0 0.00 0.00 0.00 74
20260906110037 60 307 0.0 0.0 0.00 0.00 0.00 74
20260906105546 60 307 0.0 0.0 0.00 0.00 0.00 74
20260906105052 60 307 0.0 0.0 0.00 0.00 0.00 74
20260906104532 60 307 0.0 0.0 0.00 0.00 0.00 75
20260906104039 60 307 0.0 0.0 0.00 0.00 0.00 75
20260906103529 60 307 0.0 0.0 0.00 0.00 0.00 74
20260906100432 60 307 0.0 0.0 0.00 0.00 0.00 72
20260906095313 60 307 0.0 0.0 0.00 0.00 0.00 72
20260906094806 60 307 0.0 0.0 0.00 0.00 0.00 72
20260906094310 60 307 0.0 0.0 0.00 0.00 0.00 73
20260906093808 60 307 0.0 0.0 0.00 0.00 0.00 72
20260906093311 60 307 0.0 0.0 0.00 0.00 0.00 72
20260906092755 60 307 0.0 0.0 0.00 0.00 0.00 72
20260906092251 60 307 0.0 0.0 0.00 0.00 0.00 72
20260906091754 60 307 0.0 0.0 0.00 0.00 0.00 72
20260906091247 60 307 0.0 0.0 0.00 0.00 0.00 72
20260906090753 60 307 0.0 0.0 0.00 0.00 0.00 72
20260906090252 60 307 0.0 0.0 0.00 0.00 0.00 72
20260906085742 60 307 0.0 0.0 0.00 0.00 0.00 72
20260906084616 60 307 0.0 0.0 0.00 0.00 0.00 73
20260906084113 60 307 0.0 0.0 0.00 0.00 0.00 73
20260906083615 60 307 0.0 0.0 0.00 0.00 0.00 73
20260906083116 60 307 0.0 0.0 0.00 0.00 0.00 73
20260906082620 60 307 0.0 0.0 0.00 0.00 0.00 73
20260906082101 60 307 0.0 0.0 0.00 0.00 0.00 73
20260906081559 60 307 0.0 0.0 0.00 0.00 0.00 73
20260906080431 60 307 0.0 0.0 0.00 0.00 0.00 72
20260906075310 61 307 0.0 0.0 0.00 0.00 0.00 72
20260906074819 61 307 0.0 0.0 0.00 0.00 0.00 71
20260906074301 61 307 0.0 0.0 0.00 0.00 0.00 71
20260906073746 61 307 0.0 0.0 0.00 0.00 0.00 71
20260906073233 61 307 0.0 0.0 0.00 0.00 0.00 71
20260906072723 61 307 0.0 0.0 0.00 0.00 0.00 72
20260906072231 61 307 0.0 0.0 0.00 0.00 0.00 71
20260906071732 61 307 0.0 0.0 0.00 0.00 0.00 71
20260906071219 61 307 0.0 0.0 0.00 0.00 0.00 71
20260906070052 62 307 0.0 0.0 0.00 0.00 0.00 70
20260906064938 62 307 0.0 0.0 0.00 0.00 0.00 70
20260906064443 62 307 0.0 0.0 0.00 0.00 0.00 69
20260906063926 62 307 0.0 0.0 0.00 0.00 0.00 69
20260906063423 62 307 0.0 0.0 0.00 0.00 0.00 69
20260906062908 62 307 0.0 0.0 0.00 0.00 0.00 68
20260906062406 63 307 0.0 0.0 0.00 0.00 0.00 69
20260906061849 63 307 0.0 0.0 0.00 0.00 0.00 68
20260906061353 63 307 0.0 0.0 0.00 0.00 0.00 69
20260906060845 63 307 0.0 0.0 0.00 0.00 0.00 68
20260906055710 64 307 0.0 0.0 0.00 0.00 0.00 68
20260906055212 64 307 0.0 0.0 0.00 0.00 0.00 68
20260906054709 64 307 0.0 0.0 0.00 0.00 0.00 67
20260906054217 64 307 0.0 0.0 0.00 0.00 0.00 67
20260906053706 65 307 0.0 0.0 0.00 0.00 0.00 67
20260906053206 65 307 0.0 0.0 0.00 0.00 0.00 67
20260906052701 65 307 0.0 0.0 0.00 0.00 0.00 67
20260906051540 65 307 0.0 0.0 0.00 0.00 0.00 66
20260906051025 65 307 0.0 0.0 0.00 0.00 0.00 67
20260906050531 66 307 0.0 0.0 0.00 0.00 0.00 65
20260906050034 66 307 0.0 0.0 0.00 0.00 0.00 65
20260906045526 66 307 0.0 0.0 0.00 0.00 0.00 65
20260906045033 66 307 0.0 0.0 0.00 0.00 0.00 65
20260906044530 67 307 0.0 0.0 0.00 0.00 0.00 64
20260906044016 67 307 0.0 0.0 0.00 0.00 0.00 63
20260906043522 67 307 0.0 0.0 0.00 0.00 0.00 63
20260906042337 68 307 0.0 0.0 0.00 0.00 0.00 63
20260906041837 68 307 0.0 0.0 0.00 0.00 0.00 63
20260906041330 69 307 0.0 0.0 0.00 0.00 0.00 62
20260906040839 69 307 0.0 0.0 0.00 0.00 0.00 62
20260906040326 69 307 0.0 0.0 0.00 0.00 0.00 62
20260906035815 69 307 0.0 0.0 0.00 0.00 0.00 62
20260906035259 70 307 0.0 0.0 0.00 0.00 0.00 62
20260906033503 71 307 0.0 0.0 0.00 0.00 0.00 62
20260906032946 72 307 0.0 0.0 0.00 0.00 0.00 61
20260906032426 72 307 0.0 0.0 0.00 0.00 0.00 60
20260906030658 74 307 0.0 0.0 0.00 0.00 0.00 61
20260906030207 74 307 0.0 0.0 0.00 0.00 0.00 60
20260906025716 75 307 0.0 0.0 0.00 0.00 0.00 59
20260906025222 75 307 0.0 0.0 0.00 0.00 0.00 58
20260906024723 76 307 0.0 0.0 0.00 0.00 0.00 57
20260906024218 76 307 0.0 0.0 0.00 0.00 0.00 56
20260906023658 77 307 0.0 0.0 0.00 0.00 0.00 56
20260906023139 78 307 0.0 0.0 0.00 0.00 0.00 54
20260906022623 78 307 0.0 0.0 0.00 0.00 0.00 54
20260906022118 79 307 0.0 0.0 0.00 0.00 0.00 53
20260906021601 79 307 0.0 0.0 0.00 0.00 0.00 52
20260906021100 80 307 0.0 0.0 0.00 0.00 0.00 51
20260906020546 81 307 0.0 0.0 0.00 0.00 0.00 50
20260906020045 81 307 0.0 0.0 0.00 0.00 0.00 49
20260906015536 81 307 0.0 1.0 0.00 0.00 0.00 49
20260906015021 82 307 0.0 0.0 0.00 0.00 0.00 49
20260906014507 82 307 0.0 2.0 0.00 0.00 0.00 48
20260906014014 83 307 1.0 4.0 0.00 0.00 0.00 47
20260906012835 85 307 1.0 3.0 0.00 0.00 0.00 40
20260906012332 85 307 1.0 3.0 0.00 0.00 0.00 39
20260906011833 86 308 0.0 2.0 0.00 0.00 0.00 38
20260906011324 87 308 0.0 0.0 0.00 0.00 0.00 35
20260906010829 87 308 0.0 1.0 0.00 0.00 0.00 33
20260906010333 88 334 0.0 0.0 0.00 0.00 0.00 29
20260906004536 89 335 0.0 0.0 0.00 0.00 0.00 28
20260906004027 89 335 0.0 6.0 0.00 0.00 0.00 28
20260906003526 90 337 0.0 6.0 0.00 0.00 0.00 31
20260906003019 90 5 0.0 6.0 0.00 0.00 0.00 29
20260906002508 91 34 0.0 5.0 0.00 0.00 0.00 28
20260906002004 92 325 1.0 5.0 0.00 0.00 0.00 30
20260906001455 92 309 0.0 5.0 0.00 0.00 0.00 29
20260906001002 92 315 0.0 3.0 0.00 0.00 0.00 27
20260906000508 93 169 0.0 0.0 0.00 0.00 0.00 25
20260905235958 93 169 0.0 2.0 0.00 0.00 0.00 25
20260905234818 93 155 0.0 2.0 0.00 0.00 0.00 25
20260905234319 93 155 0.0 2.0 0.00 0.00 0.00 24
20260905233824 93 150 0.0 1.0 0.00 0.00 0.00 24
20260905233312 93 83 0.0 1.0 0.00 0.00 0.00 25
20260905232753 93 137 0.0 3.0 0.00 0.00 0.00 24
20260905232252 93 156 0.0 1.0 0.00 0.00 0.00 23
20260905231746 93 90 0.0 0.0 0.00 0.00 0.00 24
20260905231243 93 159 0.0 4.0 0.00 0.00 0.00 23
20260905230743 93 94 0.0 4.0 0.00 0.00 0.00 23
20260905225624 93 142 0.0 3.0 0.00 0.00 0.00 23
20260905225128 93 59 0.0 2.0 0.00 0.00 0.00 23
20260905223948 94 49 0.0 2.0 0.00 0.00 0.00 23
20260905223445 94 127 0.0 4.0 0.00 0.00 0.00 23
20260905222950 94 65 0.0 4.0 0.00 0.00 0.00 23
20260905222455 93 110 0.0 6.0 0.00 0.00 0.00 25
20260905221347 93 329 1.0 6.0 0.00 0.00 0.00 24
20260905220852 94 53 1.0 6.0 0.00 0.00 0.00 23
20260905220356 93 183 1.0 4.0 0.00 0.00 0.00 23
20260905215852 94 63 0.0 4.0 0.00 0.00 0.00 23
20260905215350 94 45 0.0 4.0 0.00 0.00 0.00 23
20260905214859 94 127 0.0 4.0 0.00 0.00 0.00 23
20260905214347 94 239 0.0 4.0 0.00 0.00 0.00 24
20260905213832 94 142 0.0 4.0 0.00 0.00 0.00 25
20260905213341 93 74 0.0 4.0 0.00 0.00 0.00 27
20260905212833 93 199 0.0 4.0 0.00 0.00 0.00 26
20260905212328 93 0 0.0 2.0 0.00 0.00 0.00 26
20260905211834 92 38 0.0 4.0 0.00 0.00 0.00 27